{"data":{"norad_id":59772,"epoch":"2026-09-21T02:13:25.590720Z","epoch_age_seconds":120021,"freshness":"FRESH","line1":"1 59772U 24091V   26264.09265730  .00000101  00000+0  15011-4 0  9991","line2":"2 59772  53.1603 197.6863 0001374  86.7134 273.4024 15.31702070132941","mean_motion":15.3170207,"eccentricity":0.0001374,"inclination_deg":53.1603,"raan_deg":197.6863,"arg_perigee_deg":86.7134,"mean_anomaly_deg":273.4024,"bstar":1.5011e-5,"rev_number":13294,"period_min":94.013060908118,"perigee_km":469.792789819,"apogee_km":471.67485952162,"semimajor_km":6848.8708246703,"source":"CELESTRAK","updated_at":"2026-09-22T09:00:49.070853Z"}}